User: anonymous   Login
Location: Unspecified
(0.0000°N, 0.0000°E)
Time: 22:20:42
(UTC+00:00)
Language:

STARLINK-4382 - Orbit

View from above orbital plane
View from above orbital plane
View from above satellite
View from above satellite

Ground track
Ground track

The orbit is defined by the following mean orbital elements,

1 53194U          26145.57697476 +.00000000 +00000-0 -82855-3 0 00006
2 53194  97.4490 206.5885 0001994 144.9547 215.1812 15.05710222    03
Epoch (UTC): 25 May 2026 13:50:50
Eccentricity: 0.0001994
inclination: 97.4490°
perigee height: 548 km
apogee height: 551 km
right ascension of ascending node: 206.5885°
argument of perigee: 144.9547°
revolutions per day: 15.05710222
mean anomaly at epoch: 215.1812°

The dashed part of the orbit path shows where the satellite is in the earth's shadow,  

DLR